#timestamp,LO_Frequency,Hit,StdDev 
1593583215.1,286046996.0,N
1593583216.0,286046996.0,N
1593583235.8,286046995.9,N
1593583255.7,286046997.3,N
1593583275.5,286046996.7,N
1593583295.3,286047001.1,N
1593583315.2,286046999.2,N
1593583335.0,286046997.3,N
1593583335.9,286046997.3,N
1593583355.7,286046996.7,N
1593583375.6,286046997.6,N
1593583395.4,286046996.2,N
1593583415.3,286046996.3,N
1593583435.1,286046995.9,N
1593583455.8,286046997.4,N
1593583475.7,286046997.5,N
1593583495.5,286046995.6,Y
1593583515.4,286046995.7,P
1593583535.2,286047000.5,N
1593583555.0,286046998.7,N
1593583555.9,286046998.7,N
1593583575.8,286046998.4,N
1593583595.6,286046996.8,N
1593583615.5,286046995.0,Y
1593583635.3,286046999.5,P
1593583655.1,286046998.7,N
1593583675.9,286046998.4,N
1593583695.7,286046999.1,N
1593583715.5,286046999.1,N
1593583735.4,286046999.6,N
1593583755.2,286046999.2,N
1593583775.1,286046996.9,Y
1593583776.0,286046996.9,P
1593583795.8,286046998.8,N
1593583815.7,286046998.7,N
1593583835.5,286046998.3,N
1593583855.3,286046996.5,Y
1593583875.2,286047001.0,P
1593583895.0,286047000.0,N
1593583895.9,286047000.0,N
1593583915.8,286047000.3,N
1593583935.6,286047001.0,N
1593583955.4,286046999.8,N
1593583975.3,286047001.1,N
1593583995.1,286047000.0,N
1593584015.8,286047001.1,N
1593584035.7,286047000.7,N
1593584055.5,286047002.8,Y
1593584075.4,286047000.9,P
1593584095.2,286047000.5,N
1593584115.0,286047001.1,P
1593584115.9,286047001.1,Y
1593584135.8,286046998.6,P
1593584155.6,286047000.8,N
1593584175.5,286047000.8,N
1593584195.3,286047001.2,N
1593584215.1,286047001.1,N
1593584235.9,286047000.6,N
1593584255.7,286046998.5,N
1593584275.5,286047001.0,N
1593584295.4,286047000.4,N
1593584315.2,286047000.2,N
1593584335.1,286047002.7,N
1593584336.0,286047002.7,N
1593584355.8,286047000.4,N
1593584375.7,286047000.2,N
1593584395.5,286047000.9,N
1593584415.3,286047001.1,N
1593584435.2,286046998.7,N
1593584455.0,286046999.6,N
1593584455.9,286046999.6,N
1593584475.7,286046999.4,N
1593584495.6,286046998.7,N
1593584515.4,286047001.1,N
1593584535.3,286047001.0,N
1593584555.1,286047002.7,N
1593584575.9,286046998.2,N
1593584595.7,286046999.0,N
1593584615.5,286046999.2,N
1593584635.4,286046997.9,N
1593584655.2,286046996.8,N
1593584675.1,286046998.5,N
1593584676.0,286046998.5,N
1593584695.8,286046996.9,N
1593584715.6,286046998.4,N
1593584735.5,286046999.6,N
1593584755.3,286047000.0,N
1593584775.1,286046998.3,N
1593584795.9,286046998.4,N
1593584815.7,286046999.6,N
1593584835.6,286047001.2,N
1593584855.4,286046998.7,N
1593584875.3,286047001.2,N
1593584895.1,286046998.5,N
1593584896.0,286046998.5,N
1593584915.8,286046998.2,N
1593584935.7,286047000.6,N
1593584955.5,286046998.2,N
1593584975.4,286046998.7,N
1593584995.2,286046998.1,N
1593585015.0,286047000.6,N
1593585015.9,286047000.6,N
1593585035.8,286047000.7,N
1593585055.6,286047001.0,N
1593585075.5,286047000.9,N
1593585095.3,286046998.6,N
1593585115.1,286046998.5,N
1593585135.9,286046999.2,N
1593585155.7,286046999.2,N
1593585175.5,286046997.4,N
1593585195.4,286046995.3,Y
1593585215.2,286046998.1,P
1593585235.1,286047001.0,N
1593585236.0,286047001.0,N
1593585255.8,286047000.4,N
1593585275.6,286046998.4,N
1593585295.5,286046998.5,N
1593585315.3,286046999.0,N
1593585335.2,286046999.6,N
1593585355.9,286046998.2,N
1593585375.7,286046998.5,N
1593585395.6,286046999.1,N
1593585415.4,286046998.8,N
1593585435.2,286047001.2,N
1593585455.1,286046998.5,N
1593585456.0,286046998.5,N
1593585475.8,286046998.8,N
1593585495.7,286046998.7,N
1593585515.5,286046998.5,N
1593585535.3,286047000.8,N
1593585555.2,286046998.6,N
1593585575.0,286046998.2,N
1593585575.9,286046998.2,N
1593585595.8,286046998.1,N
1593585615.6,286047001.2,N
1593585635.4,286046998.2,N
1593585655.3,286046998.1,N
1593585675.1,286046999.4,N
1593585695.9,286046996.6,Y
1593585715.7,286046998.1,P
1593585735.5,286047000.6,N
1593585755.4,286047000.1,N
1593585775.2,286047002.4,N
1593585795.0,286047002.8,N
1593585796.0,286047002.8,N
1593585815.8,286047002.4,N
1593585835.6,286047002.8,N
1593585855.5,286046999.9,N
1593585875.3,286047002.4,N
1593585895.1,286047002.8,N
1593585915.9,286047002.7,N
1593585935.7,286046999.8,N
1593585955.6,286047002.3,N
1593585975.4,286047004.3,N
1593585995.2,286047002.5,N
1593586015.1,286047002.5,N
1593586016.0,286047002.5,N
1593586035.8,286047002.1,N
1593586055.6,286047000.1,N
1593586075.5,286047000.1,N
1593586095.3,286047002.3,N
1593586115.2,286047002.3,N
1593586135.9,286047002.2,N
1593586155.7,286047002.3,N
1593586175.6,286047001.5,N
1593586195.4,286047001.7,N
1593586215.3,286047001.7,N
1593586235.1,286047003.1,N
1593586236.0,286047003.1,N
1593586255.8,286047001.4,N
1593586275.7,286047002.1,N
1593586295.5,286047003.8,Y
1593586315.4,286047004.4,P
1593586335.2,286047000.1,N
1593586355.0,286047002.7,N
1593586355.9,286047002.7,N
1593586375.8,286047002.3,N
1593586395.6,286047002.5,N
1593586415.5,286047004.3,Y
1593586435.3,286047000.5,P
1593586455.1,286047001.1,N
1593586475.9,286046998.4,N
1593586495.7,286046998.9,N
1593586515.6,286047001.1,N
1593586535.4,286047000.3,N
1593586555.2,286046998.8,N
1593586575.1,286046998.5,N
1593586576.0,286046998.5,N
1593586595.8,286046998.7,N
1593586615.6,286047000.3,N
1593586635.5,286046998.2,N
1593586655.3,286047000.9,N
1593586675.2,286046998.5,N
1593586695.9,286046997.6,N
1593586715.7,286046997.9,N
1593586735.6,286046997.9,N
1593586755.4,286046994.9,Y
1593586775.3,286046999.0,P
1593586795.1,286046999.1,P
1593586796.0,286046999.1,P
